Hourly Data Report for January 04, 2019

TORONTO CITY
ONTARIO
Current Station Operator: ECCC - MSC

43°40'00.000" N
79°24'00.000" W
112.50 m
6158355
71508
XTO

Download Data

Hourly Data (January 2019)
Hourly Data Report for January 4, 2019
TIME
LST
Temp Definition
°C
Dew Point Definition
°C
Rel Hum Definition
%
Precip. Amount Definition
mm

Wind Dir Definition
10's deg

Wind Spd Definition
km/h
Visibility Definition
km
Stn Press Definition
kPa
Hmdx Definition


Wind Chill Definition


Weather Definition


00:00 1.3 -2.9 74 0.0 LegendMM LegendMM   99.70     LegendNANA
01:00 1.5 -2.4 75 0.0 LegendMM LegendMM   99.67     LegendNANA
02:00 1.7 -2.4 74 0.0 LegendMM LegendMM   99.64     LegendNANA
03:00 1.5 -2.5 75 0.0 LegendMM LegendMM   99.60     LegendNANA
04:00 1.4 -2.2 77 0.0 LegendMM LegendMM   99.55     LegendNANA
05:00 1.5 -1.7 79 0.0 LegendMM LegendMM   99.48     LegendNANA
06:00 1.5 -1.6 80 0.0 LegendMM LegendMM   99.48     LegendNANA
07:00 1.6 -1.6 79 0.0 LegendMM LegendMM   99.45     LegendNANA
08:00 2.0 -1.2 79 0.0 LegendMM LegendMM   99.47     LegendNANA
09:00 2.4 -1.5 75 0.0 LegendMM LegendMM   99.50     LegendNANA
10:00 3.5 -1.7 69 0.0 LegendMM LegendMM   99.51     LegendNANA
11:00 4.2 -1.5 66 0.0 LegendMM LegendMM   99.46     LegendNANA
12:00 5.5 -1.1 62 0.0 LegendMM LegendMM   99.33     LegendNANA
13:00 7.1 -1.2 56 0.0 LegendMM LegendMM   99.26     LegendNANA
14:00 7.4 -1.0 55 0.0 LegendMM LegendMM   99.21     LegendNANA
15:00 7.3 -0.5 58 0.0 LegendMM LegendMM   99.16     LegendNANA
16:00 6.7 -0.1 62 0.0 LegendMM LegendMM   99.15     LegendNANA
17:00 6.5 0.1 64 0.0 LegendMM LegendMM   99.16     LegendNANA
18:00 5.9 -0.9 61 0.0 LegendMM LegendMM   99.19     LegendNANA
19:00 5.0 -0.7 67 0.0 LegendMM LegendMM   99.19     LegendNANA
20:00 4.5 -0.7 69 0.0 LegendMM LegendMM   99.19     LegendNANA
21:00 3.9 -0.8 72 0.0 LegendMM LegendMM   99.20     LegendNANA
22:00 3.0 -1.3 74 0.0 LegendMM LegendMM   99.18     LegendNANA
23:00 3.1 -0.6 76 0.0 LegendMM LegendMM   99.12     LegendNANA

Notes on Data Quality.

Legend

  • E = Estimated
  • M = Missing
  • NA = Not Available*
  • [empty] = Indicates an unobserved value
Date modified: